New York JFK, NY

5:31 PM EST on December 13, 2017 (GMT -0500)
Kennedy International

Weather History for KJFK - October, 2017

Change the Weather History Date:

Friday, October 13, 2017

  Actual Average Record
Temperature  
Mean Temperature 60 °F 58 °F  
Max Temperature 67 °F 65 °F 79 °F (1995)
Min Temperature 53 °F 50 °F 37 °F (2012)
Degree Days  
Heating Degree Days 5 8  
Month to date heating degree days 22 75  
Since 1 July heating degree days 34 114  
Cooling Degree Days 0 0  
Month to date cooling degree days 53 12  
Year to date cooling degree days 1160 1003  
Growing Degree Days 10 (Base 50)    
Moisture  
Dew Point 53 °F    
Average Humidity 74    
Maximum Humidity 90    
Minimum Humidity 58    
Precipitation  
Precipitation T in 0.12 in 1.93 in (2005)
Month to date precipitation 0.48 1.60  
Year to date precipitation 35.93 34.06  
Snow  
Snow 0.00 in 0.00 in - ()
Month to date snowfall 0.0 0.0  
Since 1 July snowfall 0.0 0.0  
Snow Depth 0.00 in    
Sea Level Pressure  
Sea Level Pressure 30.40 in    
Wind  
Wind Speed 12 mph (ENE)    
Max Wind Speed 20 mph    
Max Gust Speed 24 mph    
Visibility 10 miles    
Events      
T = Trace of Precipitation, MM = Missing Value Source: NWS Daily Summary

Daily Weather History Graph

Daily Weather History Graph

Search for Another Location

Airport or City:

Trip Planner

Search our weather history database for the weather conditions in past years. The results will help you decide how hot, cold, wet, or windy it might be!

Date:

Astronomy

Oct. 13, 2017 Rise Set
Actual Time 7:04 AM EDT 6:17 PM EDT
Civil Twilight 6:36 AM EDT 6:45 PM EDT
Nautical Twilight 6:05 AM EDT 7:16 PM EDT
Astronomical Twilight 5:33 AM EDT 7:48 PM EDT
Moon 12:22 AM EDT 3:01 PM EDT
Length of Visible Light 12h 08m
Length of Day
11h 13m
Last Quarter, 37% of the Moon is Illuminated
Oct 13
Last Quarter
Oct 19
New
Oct 27
First Quarter
Nov 4
Full
Nov 10
Last Quarter

Hourly Weather History & Observations

Time (EDT) Temp. Dew Point Humidity Pressure Visibility Wind Dir Wind Speed Gust Speed Precip Events Conditions
12:51 AM 54.0 °F 46.0 °F 75% 30.42 in 10.0 mi NE 11.5 mph - N/A   Partly Cloudy
1:51 AM 53.1 °F 46.9 °F 80% 30.42 in 10.0 mi NE 12.7 mph - N/A   Partly Cloudy
2:51 AM 54.0 °F 46.9 °F 77% 30.41 in 10.0 mi NE 12.7 mph - N/A   Mostly Cloudy
3:51 AM 54.0 °F 48.0 °F 80% 30.43 in 10.0 mi NNE 10.4 mph - N/A   Mostly Cloudy
4:51 AM 54.0 °F 48.0 °F 80% 30.42 in 10.0 mi NE 11.5 mph - N/A   Scattered Clouds
5:51 AM 53.1 °F 48.9 °F 86% 30.42 in 10.0 mi NE 10.4 mph - N/A   Mostly Cloudy
6:51 AM 54.0 °F 48.9 °F 83% 30.43 in 10.0 mi NE 11.5 mph - N/A   Mostly Cloudy
7:51 AM 55.0 °F 48.9 °F 80% 30.44 in 10.0 mi NE 12.7 mph - N/A   Mostly Cloudy
8:51 AM 57.0 °F 50.0 °F 77% 30.45 in 10.0 mi NE 12.7 mph - N/A   Mostly Cloudy
9:51 AM 61.0 °F 51.1 °F 70% 30.45 in 10.0 mi East 12.7 mph - N/A   Mostly Cloudy
10:51 AM 63.0 °F 51.1 °F 65% 30.45 in 10.0 mi East 12.7 mph - N/A   Mostly Cloudy
11:51 AM 66.9 °F 52.0 °F 59% 30.44 in 10.0 mi East 15.0 mph - N/A   Mostly Cloudy
12:51 PM 66.0 °F 52.0 °F 60% 30.42 in 10.0 mi East 13.8 mph 20.7 mph N/A   Mostly Cloudy
1:51 PM 64.9 °F 54.0 °F 68% 30.39 in 10.0 mi East 11.5 mph - N/A   Mostly Cloudy
2:51 PM 64.9 °F 55.9 °F 73% 30.38 in 10.0 mi East 15.0 mph - N/A   Mostly Cloudy
3:51 PM 64.9 °F 55.9 °F 73% 30.38 in 10.0 mi East 15.0 mph - N/A   Mostly Cloudy
4:51 PM 64.0 °F 57.0 °F 78% 30.36 in 10.0 mi East 15.0 mph - N/A   Mostly Cloudy
5:08 PM 63.0 °F 57.0 °F 81% 30.36 in 10.0 mi East 15.0 mph - N/A   Mostly Cloudy
5:51 PM 62.1 °F 57.0 °F 84% 30.36 in 10.0 mi East 12.7 mph - N/A   Overcast
6:51 PM 62.1 °F 57.9 °F 86% 30.35 in 10.0 mi East 11.5 mph - N/A   Overcast
7:51 PM 62.1 °F 57.9 °F 86% 30.35 in 10.0 mi East 10.4 mph - N/A   Overcast
8:51 PM 62.1 °F 57.9 °F 86% 30.35 in 10.0 mi ENE 9.2 mph - N/A   Overcast
9:51 PM 62.1 °F 59.0 °F 90% 30.35 in 10.0 mi ENE 9.2 mph - N/A   Overcast
10:51 PM 62.1 °F 57.9 °F 86% 30.33 in 10.0 mi ENE 5.8 mph - N/A   Overcast
11:51 PM 62.1 °F 59.0 °F 90% 30.32 in 10.0 mi NE 8.1 mph - 0.00 in   Light Drizzle